RH
39 34 28 26 24 22 32 39 51 31 36 31 30 38 42 46 51 51 55 62 67 74 86 83 80 77 87 83 76 72 59 49 35 18 16 14 14 13 12 10 9 10 11 12
41 40 44 43 41 38 32 28 33 34 29 37 39 46 50 50 50 53 59 58 68 83 89 84 78 95 88 83 75 60 50 30 19 16 14 15 14 13 13 12 13 13 14 15
59 49 49 49 36 28 27 33 42 47 43 45 46 50 55 54 51 52 58 65 78 83 83 84 91 95 85 73 61 49 35 22 16 14 15 14 14 15 16 16 17 17 18 18
72 61 66 35 34 38 44 48 52 51 52 54 55 58 60 60 60 71 73 76 76 82 88 91 90 81 71 62 53 36 22 14 15 15 14 14 15 18 18 19 20 20 20 20
63 53 35 38 42 48 52 53 53 52 56 71 69 63 63 65 69 71 73 75 83 85 85 86 78 72 63 51 28 20 14 15 15 14 14 15 17 19 19 21 21 22 23 23
66 72 72 52 46 47 55 62 54 61 66 71 71 66 60 64 71 77 81 81 82 83 85 79 71 55 40 27 19 14 15 15 14 14 15 17 19 20 21 22 22 22 21 19
73 80 70 60 48 49 60 53 55 62 67 66 65 63 63 71 76 81 85 83 82 83 75 61 45 37 27 19 14 14 14 13 14 14 16 18 19 20 20 19 18 18 18 18
91 96 85 59 58 74 72 73 72 65 68 66 68 66 65 75 79 84 86 82 73 67 52 42 34 27 20 14 14 14 14 13 13 15 17 18 17 17 17 19 19 19 19 18
87 81 73 72 66 66 80 84 73 71 69 64 64 65 68 76 76 70 60 57 55 47 39 32 27 24 14 13 12 12 13 13 13 15 15 15 17 19 20 20 20 20 20 20
91 84 84 79 76 79 80 82 78 77 69 66 66 69 72 71 67 54 50 47 44 39 31 27 27 17 12 11 10 11 12 13 14 15 16 18 20 21 22 22 22 22 22 21
92 88 81 80 76 77 79 81 80 79 73 68 70 72 73 73 68 59 53 44 40 33 28 26 23 11 9 9 10 11 11 12 14 16 19 20 22 23 24 24 24 23 22 22
81 76 79 75 75 73 73 77 79 78 70 66 70 70 71 71 67 63 57 41 36 29 25 25 13 8 9 9 11 12 11 12 15 18 20 23 25 26 26 25 25 24 23 22
75 70 69 71 74 78 76 77 83 78 72 69 71 73 72 73 69 66 48 38 32 27 26 23 9 8 9 10 11 12 11 13 16 20 23 26 27 27 27 27 26 26 27 26
75 78 78 79 81 83 80 79 78 75 72 72 72 72 72 74 69 60 43 36 30 27 26 22 10 8 9 11 12 13 13 14 17 21 24 26 26 28 28 28 28 28 28 29
83 83 81 82 82 82 83 81 78 75 75 77 78 75 73 73 70 50 41 36 31 27 26 22 12 9 10 12 13 15 16 18 19 21 26 28 27 26 27 27 28 29 30 31
83 82 80 78 77 81 84 83 81 79 80 83 82 80 78 73 63 44 42 38 35 28 27 19 12 10 10 12 14 16 18 20 21 22 23 22 21 23 24 26 29 30 30 31
80 77 80 80 78 83 89 89 87 86 86 88 86 85 77 60 48 45 51 43 42 35 26 14 10 11 11 14 15 16 17 18 18 19 19 20 22 23 25 28 30 30 29 30
74 76 77 78 79 88 89 92 91 92 92 85 69 58 54 55 55 55 53 45 43 41 35 23 17 14 13 13 15 16 16 17 17 17 18 20 24 26 25 27 30 30 33 37
62 66 69 78 85 88 87 86 82 79 69 58 53 52 56 58 52 49 44 43 42 42 36 28 25 24 22 19 16 16 15 15 15 16 17 21 25 27 28 31 35 41 47 53
66 73 69 73 85 90 91 91 86 80 69 63 62 65 66 62 61 56 51 48 42 40 38 33 28 26 26 27 25 23 22 21 22 23 24 28 33 38 42 47 54 61 66 73
69 75 75 73 81 87 91 92 90 91 90 85 77 78 71 63 61 56 54 53 51 47 41 38 34 32 32 31 31 31 32 33 33 34 36 40 47 53 59 65 72 79 81 87
71 73 73 68 69 75 80 84 87 83 77 79 82 74 68 71 70 69 64 59 57 55 48 44 44 46 44 42 41 41 42 42 44 49 55 59 65 73 78 82 87 91 96 98
72 72 73 76 76 71 69 72 75 79 80 75 72 72 72 67 65 65 63 62 61 60 60 65 66 64 62 60 59 59 61 64 68 71 74 78 82 87 92 96 98 99 99 99
77 76 76 74 76 79 80 80 76 75 74 74 74 74 76 75 74 73 72 71 73 75 79 79 79 78 77 79 80 80 80 83 88 91 94 97 98 98 98 98 99 99 99 99
82 83 84 85 82 79 80 82 84 85 87 87 86 85 85 86 87 88 89 89 89 89 91 90 90 90 89 90 91 92 95 96 97 98 98 98 98 99 99 99 99 99 99 99
86 87 86 86 89 89 90 91 90 90 92 93 94 95 95 95 95 94 93 92 92 93 92 91 92 94 96 98 98 98 98 98 98 98 98 98 98 97 97 96 96 98 99 99
86 87 88 89 89 91 92 93 94 94 94 93 93 93 92 92 90 90 90 92 94 95 96 96 96 96 97 96 96 96 96 94 89 86 84 85 87 89 91 93 96 99 99 99